Williams, AZ

2:17 AM MST on February 20, 2017 (GMT -0700)
Williams

Weather History for KCMR - November, 2013

Change the Weather History Date:

Sunday, November 17, 2013

  Actual Average (K40G) Record (K40G)
Temperature  
Mean Temperature 42 °F -  
Max Temperature 53 °F 48 °F 60 °F (1998)
Min Temperature 30 °F 44 °F 37 °F (1996)
Degree Days  
Heating Degree Days 22    
Moisture  
Dew Point 31 °F    
Average Humidity 74    
Maximum Humidity 100    
Minimum Humidity 41    
Precipitation  
Precipitation 0.00 in - - ()
Sea Level Pressure  
Sea Level Pressure 30.17 in    
Wind  
Wind Speed 7 mph (SE)    
Max Wind Speed 18 mph    
Max Gust Speed 23 mph    
Visibility 10 miles    
Events      
Averages and records for this station are not official NWS values.
T = Trace of Precipitation, MM = Missing Value Source: NWS Daily Summary

Daily Weather History Graph

Daily Weather History Graph

Search for Another Location

Airport or City:

Trip Planner

Search our weather history database for the weather conditions in past years. The results will help you decide how hot, cold, wet, or windy it might be!

Date:

Astronomy

Nov. 17, 2013 Rise Set
Actual Time 7:06 AM MST 5:21 PM MST
Civil Twilight 6:38 AM MST 5:48 PM MST
Nautical Twilight 6:08 AM MST 6:19 PM MST
Astronomical Twilight 5:37 AM MST 6:49 PM MST
Moon 5:40 PM MST (11/17) 7:04 AM MST (11/17)
Length of Visible Light 11h 09m
Length of Day
10h 15m
Full, 100% of the Moon is Illuminated
Nov 17
Full
Nov 25
Last Quarter
Dec 2
New
Dec 9
First Quarter
Dec 17
Full

Hourly Weather History & Observations

Time (MST) Temp. Windchill Dew Point Humidity Pressure Visibility Wind Dir Wind Speed Gust Speed Precip Events Conditions
12:15 AM 37.4 °F 31.4 °F 32.0 °F 81% 30.03 in 10.0 mi SSE 8.1 mph - N/A   Clear
12:35 AM 37.4 °F 28.5 °F 32.0 °F 81% 30.03 in 10.0 mi South 15.0 mph - N/A   Clear
12:55 AM 37.4 °F 34.9 °F 32.0 °F 81% 30.03 in 10.0 mi SE 3.5 mph 16.1 mph N/A   Clear
1:15 AM 33.8 °F - 28.4 °F 81% 30.04 in 10.0 mi Calm Calm - N/A   Clear
1:35 AM 35.6 °F 31.7 °F 32.0 °F 87% 30.03 in 10.0 mi East 4.6 mph - N/A   Clear
1:55 AM 35.6 °F - 30.2 °F 81% 30.04 in 10.0 mi Calm Calm - N/A   Clear
2:15 AM 35.6 °F - 30.2 °F 81% 30.05 in 10.0 mi Calm Calm - N/A   Clear
2:35 AM 37.4 °F - 28.4 °F 70% 30.06 in 10.0 mi Calm Calm - N/A   Clear
2:55 AM 33.8 °F - 28.4 °F 81% 30.07 in 10.0 mi Calm Calm - N/A   Clear
3:15 AM 35.6 °F - 32.0 °F 87% 30.07 in 10.0 mi Calm Calm - N/A   Clear
3:35 AM 33.8 °F 30.8 °F 32.0 °F 93% 30.07 in 10.0 mi East 3.5 mph - N/A   Clear
3:55 AM 32.0 °F 27.5 °F 30.2 °F 93% 30.07 in 10.0 mi SE 4.6 mph - N/A   Clear
4:15 AM 32.0 °F 24.8 °F 32.0 °F 100% 30.08 in 10.0 mi SE 8.1 mph - N/A   Clear
4:35 AM 33.8 °F 27.7 °F 32.0 °F 93% 30.08 in 10.0 mi SE 6.9 mph - N/A   Clear
4:55 AM 32.0 °F 24.8 °F 32.0 °F 100% 30.09 in 10.0 mi SE 8.1 mph - N/A   Clear
5:15 AM 32.0 °F 24.2 °F 32.0 °F 100% 30.09 in 10.0 mi SE 9.2 mph - N/A   Clear
5:35 AM 33.8 °F 27.7 °F 32.0 °F 93% 30.10 in 10.0 mi SE 6.9 mph - N/A   Clear
5:55 AM 33.8 °F 27.0 °F 32.0 °F 93% 30.11 in 10.0 mi SE 8.1 mph - N/A   Clear
6:15 AM 33.8 °F 25.8 °F 32.0 °F 93% 30.11 in 10.0 mi SE 10.4 mph - N/A   Clear
6:35 AM 35.6 °F 27.5 °F 32.0 °F 87% 30.12 in 10.0 mi SE 11.5 mph - N/A   Clear
6:55 AM 35.6 °F 28.6 °F 32.0 °F 87% 30.12 in 10.0 mi SE 9.2 mph - N/A   Clear
7:15 AM 35.6 °F 28.6 °F 32.0 °F 87% 30.13 in 10.0 mi SE 9.2 mph - N/A   Clear
7:35 AM 35.6 °F 27.5 °F 32.0 °F 87% 30.14 in 10.0 mi SE 11.5 mph 17.3 mph N/A   Clear
7:55 AM 35.6 °F 27.5 °F 32.0 °F 87% 30.14 in 10.0 mi SE 11.5 mph - N/A   Clear
8:15 AM 37.4 °F 28.2 °F 32.0 °F 81% 30.15 in 10.0 mi SE 16.1 mph 20.7 mph N/A   Clear
8:35 AM 39.2 °F 31.2 °F 33.8 °F 81% 30.16 in 10.0 mi SE 13.8 mph 18.4 mph N/A   Clear
8:55 AM 39.2 °F 31.6 °F 33.8 °F 81% 30.17 in 10.0 mi SE 12.7 mph 19.6 mph N/A   Clear
9:15 AM 41.0 °F 32.8 °F 32.0 °F 70% 30.18 in 10.0 mi SE 16.1 mph 23.0 mph N/A   Clear
9:35 AM 41.0 °F 32.2 °F 32.0 °F 70% 30.18 in 10.0 mi SE 18.4 mph - N/A   Clear
9:55 AM 44.6 °F 37.2 °F 32.0 °F 61% 30.19 in 10.0 mi SE 17.3 mph 23.0 mph N/A   Clear
10:15 AM 44.6 °F 37.8 °F 32.0 °F 61% 30.20 in 10.0 mi SE 15.0 mph 18.4 mph N/A   Clear
10:35 AM 44.6 °F 37.8 °F 32.0 °F 61% 30.20 in 10.0 mi ESE 15.0 mph 19.6 mph N/A   Clear
10:55 AM 48.2 °F - 32.0 °F 54% 30.21 in 10.0 mi SE 10.4 mph - N/A   Clear
11:15 AM 48.2 °F - 32.0 °F 54% 30.21 in 10.0 mi ESE 8.1 mph - N/A   Clear
11:35 AM 48.2 °F - 32.0 °F 54% 30.21 in 10.0 mi ESE 11.5 mph - N/A   Clear
11:55 AM 50.0 °F - 32.0 °F 50% 30.20 in 10.0 mi SE 6.9 mph - N/A   Clear
12:15 PM 50.0 °F - 32.0 °F 50% 30.20 in 10.0 mi Calm Calm - N/A   Clear
12:35 PM 51.8 °F - 32.0 °F 47% 30.19 in 10.0 mi Calm Calm - N/A   Clear
12:55 PM 51.8 °F - 32.0 °F 47% 30.19 in 10.0 mi ESE 4.6 mph - N/A   Clear
1:15 PM 51.8 °F - 32.0 °F 47% 30.18 in 10.0 mi ESE 6.9 mph - N/A   Clear
1:35 PM 53.6 °F - 32.0 °F 44% 30.18 in 10.0 mi ESE 8.1 mph - N/A   Clear
1:55 PM 53.6 °F - 32.0 °F 44% 30.18 in 10.0 mi SE 10.4 mph - N/A   Clear
2:15 PM 53.6 °F - 32.0 °F 44% 30.18 in 10.0 mi SE 10.4 mph 16.1 mph N/A   Clear
2:35 PM 53.6 °F - 32.0 °F 44% 30.19 in 10.0 mi SE 12.7 mph - N/A   Clear
2:55 PM 51.8 °F - 32.0 °F 47% 30.19 in 10.0 mi South 8.1 mph - N/A   Clear
3:15 PM 51.8 °F - 32.0 °F 47% 30.20 in 10.0 mi Calm Calm - N/A   Clear
3:35 PM 51.8 °F - 30.2 °F 44% 30.20 in 10.0 mi South 4.6 mph - N/A   Clear
3:55 PM 51.8 °F - 28.4 °F 41% 30.20 in 10.0 mi South 3.5 mph - N/A   Clear
4:15 PM 50.0 °F - 30.2 °F 47% 30.20 in 10.0 mi Calm Calm - N/A   Clear
4:35 PM 50.0 °F - 32.0 °F 50% 30.21 in 10.0 mi Calm Calm - N/A   Unknown
4:55 PM 50.0 °F - 32.0 °F 50% 30.21 in 10.0 mi SW 5.8 mph - N/A   Clear
5:15 PM 46.4 °F 43.5 °F 32.0 °F 57% 30.21 in 10.0 mi SSW 5.8 mph - N/A   Clear
5:35 PM 44.6 °F - 32.0 °F 61% 30.22 in 10.0 mi Calm Calm - N/A   Clear
5:55 PM 41.0 °F - 32.0 °F 70% 30.23 in 10.0 mi Calm Calm - N/A   Clear
6:15 PM 42.8 °F - 32.0 °F 66% 30.24 in 10.0 mi Calm Calm - N/A   Clear
6:35 PM 39.2 °F - 32.0 °F 75% 30.25 in 10.0 mi Calm Calm - N/A   Clear
6:55 PM 39.2 °F - 32.0 °F 75% 30.25 in 10.0 mi Calm Calm - N/A   Clear
7:15 PM 37.4 °F 34.9 °F 32.0 °F 81% 30.25 in 10.0 mi SSE 3.5 mph - N/A   Clear
7:35 PM 37.4 °F 32.1 °F 32.0 °F 81% 30.25 in 10.0 mi SSE 6.9 mph - N/A   Clear
7:55 PM 35.6 °F 29.9 °F 32.0 °F 87% 30.26 in 10.0 mi SSE 6.9 mph - N/A   Clear
8:15 PM 35.6 °F 31.7 °F 32.0 °F 87% 30.26 in 10.0 mi SSE 4.6 mph - N/A   Clear
8:35 PM 35.6 °F 29.9 °F 32.0 °F 87% 30.27 in 10.0 mi SE 6.9 mph - N/A   Clear
8:55 PM 35.6 °F 29.2 °F 32.0 °F 87% 30.27 in 10.0 mi SSE 8.1 mph - N/A   Clear
9:15 PM 32.0 °F 25.6 °F 30.2 °F 93% 30.28 in 10.0 mi SE 6.9 mph - N/A   Clear
9:35 PM 32.0 °F 25.6 °F 28.4 °F 87% 30.28 in 10.0 mi SE 6.9 mph - N/A   Clear
9:55 PM 32.0 °F 24.8 °F 30.2 °F 93% 30.28 in 10.0 mi SE 8.1 mph - N/A   Clear
10:15 PM 32.0 °F - 28.4 °F 87% 30.28 in 10.0 mi Calm Calm - N/A   Clear
10:35 PM 32.0 °F - 30.2 °F 93% 30.28 in 10.0 mi Calm Calm - N/A   Clear
10:55 PM 32.0 °F 25.6 °F 28.4 °F 87% 30.27 in 10.0 mi SSE 6.9 mph - N/A   Clear
11:15 PM 32.0 °F - 28.4 °F 87% 30.28 in 10.0 mi Calm Calm - N/A   Clear
11:35 PM 32.0 °F 25.6 °F 28.4 °F 87% 30.28 in 10.0 mi SE 6.9 mph - N/A   Clear
11:55 PM 30.2 °F 22.6 °F 28.4 °F 93% 30.28 in 10.0 mi SE 8.1 mph - N/A   Clear